Location: Étouvelles
(49.5207°N, 3.5808°E)
Time: 10:37:19
(UTC+00:00)

Cosmos 1943 Rocket - Pass Details

Date: 03 February 2023
Orbit: 811 x 844 km, 71.0° (Epoch: 23 March)

Event Time Altitude Azimuth Distance (km) Brightness Sun altitude
Rises 18:51:17 0° 334° (NNW) 3,415 5.7 -20.8°
Reaches altitude 10° 18:54:35 10° 353° (N) 2,477 4.7 -21.3°
Enters shadow 18:57:44 18° 27° (NNE) 1,982 3.9 -21.8°
